| time (UTC) | temp F | wind direction | speed knots | gust knots | rain 1hr in | rain 24hr in | rain mn in | humidity % | barometer mb |
| 20260506033019 | 49 | 9 | 0.9 | 2.6 | 0.00 | 0.00 | 0.00 | 100 | 1007.7 |
| 20260506031516 | 49 | 349 | 0.9 | 2.6 | 0.00 | 0.00 | 0.00 | 100 | 1007.9 |
| 20260506030010 | 49 | 355 | 0.9 | 2.6 | 0.00 | 0.00 | 0.00 | 100 | 1007.9 |
| 20260506024506 | 49 | 158 | 0.0 | 1.7 | 0.00 | 0.00 | 0.00 | 100 | 1007.6 |
| 20260506023002 | 49 | 160 | 0.0 | 1.7 | 0.00 | 0.00 | 0.00 | 100 | 1007.8 |
| 20260506021558 | 49 | 159 | 0.0 | 0.9 | 0.00 | 0.00 | 0.00 | 100 | 1007.5 |
| 20260506020053 | 49 | 159 | 0.0 | 0.9 | 0.00 | 0.00 | 0.00 | 100 | 1007.2 |
| 20260506014548 | 49 | 159 | 0.0 | 0.9 | 0.00 | 0.00 | 0.00 | 100 | 1007.5 |
| 20260506013044 | 49 | 159 | 0.0 | 1.7 | 0.00 | 0.00 | 0.00 | 100 | 1007.3 |
| 20260506011540 | 49 | 161 | 0.0 | 2.6 | 0.00 | 0.00 | 0.00 | 100 | 1007.3 |
| 20260506010043 | 49 | 235 | 0.9 | 2.6 | 0.00 | 0.00 | 0.00 | 100 | 1007.7 |
| 20260506004551 | 48 | 277 | 0.0 | 1.7 | 0.00 | 0.00 | 0.00 | 100 | 1007.7 |
| 20260506003038 | 49 | 319 | 0.0 | 3.5 | 0.00 | 0.00 | 0.00 | 100 | 1007.9 |
| 20260506001523 | 49 | 76 | 0.0 | 1.7 | 0.00 | 0.00 | 0.00 | 100 | 1007.5 |
| 20260506000019 | 49 | 11 | 0.0 | 3.5 | 0.00 | 0.00 | 0.00 | 100 | 1007.5 |
| 20260505234524 | 49 | 314 | 0.0 | 1.7 | 0.00 | 0.00 | 0.00 | 100 | 1008.0 |
| 20260505233010 | 49 | 317 | 0.9 | 4.3 | 0.00 | 0.00 | 0.00 | 100 | 1007.8 |
| 20260505231510 | 49 | 296 | 0.9 | 2.6 | 0.00 | 0.00 | 0.00 | 100 | 1007.6 |
| 20260505230105 | 49 | 289 | 0.0 | 2.6 | 0.00 | 0.00 | 0.00 | 100 | 1007.5 |
| 20260505224557 | 49 | 340 | 0.9 | 2.6 | 0.00 | 0.00 | 0.00 | 100 | 1007.4 |
| 20260505223052 | 50 | 336 | 0.9 | 2.6 | 0.00 | 0.00 | 0.00 | 100 | 1007.5 |
| 20260505221549 | 50 | 267 | 0.0 | 3.5 | 0.00 | 0.00 | 0.00 | 100 | 1007.5 |
| 20260505220057 | 50 | 340 | 0.0 | 4.3 | 0.00 | 0.00 | 0.00 | 100 | 1007.1 |
| 20260505214541 | 50 | 308 | 3.5 | 8.7 | 0.00 | 0.00 | 0.00 | 100 | 1007.5 |
| 20260505213034 | 51 | 344 | 1.7 | 7.0 | 0.00 | 0.00 | 0.00 | 100 | 1007.3 |
| 20260505211530 | 51 | 40 | 3.5 | 12.2 | 0.00 | 0.00 | 0.00 | 100 | 1006.9 |
| 20260505210025 | 54 | 348 | 4.3 | 9.6 | 0.00 | 0.00 | 0.00 | 100 | 1006.7 |
| 20260505204520 | 55 | 5 | 1.7 | 5.2 | 0.00 | 0.00 | 0.00 | 100 | 1006.8 |
| 20260505203017 | 55 | 329 | 1.7 | 5.2 | 0.00 | 0.00 | 0.00 | 100 | 1006.5 |
| 20260505201513 | 56 | 348 | 4.3 | 10.4 | 0.00 | 0.00 | 0.00 | 15 | 1006.5 |
| 20260505200008 | 58 | 346 | 2.6 | 8.7 | 0.00 | 0.00 | 0.00 | 32 | 1006.4 |
| 20260505194509 | 60 | 355 | 5.2 | 13.0 | 0.00 | 0.00 | 0.00 | 31 | 1006.1 |
| 20260505193005 | 60 | 338 | 1.7 | 10.4 | 0.00 | 0.00 | 0.00 | 30 | 1006.1 |
| 20260505191501 | 60 | 293 | 3.5 | 7.8 | 0.00 | 0.00 | 0.00 | 29 | 1006.3 |
| 20260505184604 | 60 | 325 | 4.3 | 10.4 | 0.00 | 0.00 | 0.00 | 31 | 1006.3 |
| 20260505183058 | 60 | 323 | 3.5 | 12.2 | 0.00 | 0.00 | 0.00 | 32 | 1006.3 |
| 20260505181559 | 60 | 14 | 3.5 | 12.2 | 0.00 | 0.00 | 0.00 | 33 | 1006.3 |
| 20260505180058 | 61 | 331 | 4.3 | 14.8 | 0.00 | 0.00 | 0.00 | 38 | 1006.1 |
| 20260505174607 | 61 | 5 | 5.2 | 16.5 | 0.00 | 0.00 | 0.00 | 44 | 1005.8 |
| 20260505173046 | 63 | 351 | 7.8 | 16.5 | 0.00 | 0.00 | 0.00 | 52 | 1005.4 |
| 20260505171543 | 64 | 355 | 7.8 | 18.2 | 0.00 | 0.00 | 0.00 | 54 | 1005.2 |
| 20260505170141 | 66 | 344 | 8.7 | 18.2 | 0.00 | 0.00 | 0.00 | 56 | 1005.0 |
| 20260505164541 | 65 | 355 | 4.3 | 8.7 | 0.00 | 0.00 | 0.00 | 54 | 1004.9 |
| 20260505163043 | 66 | 350 | 5.2 | 12.2 | 0.00 | 0.00 | 0.00 | 56 | 1005.1 |
| 20260505161542 | 69 | 300 | 6.1 | 17.4 | 0.00 | 0.00 | 0.00 | 55 | 1004.5 |
| 20260505153045 | 65 | 306 | 3.5 | 10.4 | 0.00 | 0.00 | 0.00 | 52 | 1005.1 |
| 20260505151534 | 65 | 302 | 5.2 | 13.0 | 0.00 | 0.00 | 0.00 | 53 | 1004.9 |
| 20260505124516 | 65 | 298 | 7.8 | 12.2 | 0.00 | 0.00 | 0.00 | 54 | 1003.1 |
| 20260505123012 | 65 | 295 | 5.2 | 12.2 | 0.00 | 0.00 | 0.00 | 53 | 1002.9 |
| 20260505121514 | 65 | 301 | 5.2 | 11.3 | 0.00 | 0.00 | 0.00 | 53 | 1003.1 |
| 20260505120011 | 65 | 294 | 4.3 | 13.0 | 0.00 | 0.00 | 0.00 | 53 | 1003.0 |
| 20260505114510 | 65 | 300 | 3.5 | 8.7 | 0.00 | 0.00 | 0.00 | 53 | 1002.9 |
| 20260505113010 | 64 | 292 | 5.2 | 13.0 | 0.00 | 0.00 | 0.00 | 53 | 1002.6 |
| 20260505111509 | 65 | 288 | 5.2 | 13.0 | 0.00 | 0.00 | 0.00 | 53 | 1002.4 |
| 20260505101505 | 64 | 252 | 3.5 | 7.8 | 0.00 | 0.00 | 0.00 | 53 | 1001.6 |
| 20260505100005 | 64 | 247 | 3.5 | 10.4 | 0.00 | 0.00 | 0.00 | 54 | 1001.5 |
| 20260505094503 | 64 | 287 | 3.5 | 10.4 | 0.00 | 0.00 | 0.00 | 53 | 1001.4 |
| 20260505093003 | 64 | 295 | 5.2 | 12.2 | 0.00 | 0.00 | 0.00 | 53 | 1001.2 |
| 20260505091503 | 64 | 246 | 4.3 | 10.4 | 0.00 | 0.00 | 0.00 | 53 | 1001.2 |
| 20260505090001 | 64 | 295 | 4.3 | 13.9 | 0.00 | 0.00 | 0.00 | 52 | 1001.4 |
| 20260505084601 | 64 | 271 | 5.2 | 10.4 | 0.00 | 0.00 | 0.00 | 52 | 1001.3 |
| 20260505083117 | 64 | 215 | 3.5 | 13.9 | 0.00 | 0.00 | 0.00 | 52 | 1001.2 |
| 20260505081559 | 64 | 235 | 4.3 | 11.3 | 0.00 | 0.00 | 0.00 | 51 | 1001.0 |
| 20260505080058 | 64 | 290 | 3.5 | 13.0 | 0.00 | 0.00 | 0.00 | 51 | 1001.2 |
| 20260505074558 | 64 | 256 | 4.3 | 10.4 | 0.00 | 0.00 | 0.00 | 50 | 1001.0 |
| 20260505073105 | 64 | 259 | 5.2 | 12.2 | 0.00 | 0.00 | 0.00 | 50 | 1000.8 |
| 20260505071556 | 64 | 303 | 3.5 | 10.4 | 0.00 | 0.00 | 0.00 | 50 | 1001.1 |
| 20260505070056 | 64 | 221 | 4.3 | 11.3 | 0.00 | 0.00 | 0.00 | 50 | 1001.0 |
| 20260505064601 | 64 | 285 | 3.5 | 12.2 | 0.00 | 0.00 | 0.00 | 51 | 1001.2 |
| 20260505063054 | 65 | 283 | 5.2 | 13.9 | 0.00 | 0.00 | 0.00 | 52 | 1001.3 |
| 20260505061551 | 65 | 267 | 6.1 | 14.8 | 0.00 | 0.00 | 0.00 | 52 | 1001.5 |
| 20260505060049 | 65 | 303 | 5.2 | 13.0 | 0.00 | 0.00 | 0.00 | 53 | 1001.6 |
| 20260505054556 | 65 | 189 | 6.1 | 19.1 | 0.00 | 0.00 | 0.00 | 54 | 1002.0 |
| 20260505053051 | 65 | 324 | 5.2 | 12.2 | 0.00 | 0.00 | 0.00 | 54 | 1002.2 |
| 20260505051544 | 65 | 259 | 7.0 | 14.8 | 0.00 | 0.00 | 0.00 | 54 | 1002.2 |
| 20260505041535 | 63 | 308 | 0.9 | 2.6 | 0.00 | 0.00 | 0.00 | 49 | 1003.1 |
| 20260505040030 | 64 | 5 | 0.0 | 4.3 | 0.00 | 0.00 | 0.00 | 52 | 1003.1 |
| 20260505034524 | 65 | 288 | 1.7 | 7.8 | 0.00 | 0.00 | 0.00 | 53 | 1003.4 |